Hourly Weather Roundup
Issued by NWS Central Illinois

Home | Current Version | Previous Version | Text Only | Print | Product List | Glossary On
Versions: 1 2 3 4 5 6 7 8 9 10 11 12 13 14 15 16 17 18 19 20 21 22 23 24 25 26 27 28 29 30 31 32 33 34 35 36 37 38 39 40 41 42 43 44 45 46 47 48 49 50
000
NZUS43 KILX 221010
HWRILX

AREA WEATHER ROUNDUP
NATIONAL WEATHER SERVICE, LINCOLN IL
500 AM CDT TUE JUL 22 2014


CITY           SKY/WX    TMP DP  RH WIND       PRES   REMARKS
BLOOMINGTON    CLEAR     64  62  93 S8        30.10R
CHAMPAIGN      CLEAR     64  62  93 S6        30.10S FOG
DECATUR        CLEAR     67  63  87 S6        30.09S
FLORA          CLEAR     61  61 100 CALM      30.10S FOG
GALESBURG      CLEAR     69  66  90 S6        30.03S
JACKSONVILLE   CLEAR     71  67  87 S7        30.07S
LACON          CLEAR     69  64  83 S7        30.04S
LAWRENCEVILLE  CLEAR     66  65  96 NW3       30.10R FOG
LITCHFIELD     CLEAR     64  62  96 S3        30.09R
$$


CITY           SKY/WX    TMP DP  RH WIND       PRES   REMARKS
LINCOLN        CLEAR     65  62  92 CALM      30.06R FOG
MACOMB         CLEAR     69  67  93 S7        30.05F
MATTOON        CLEAR     64  62  93 S5        30.10R FOG
MT CARMEL AP   CLEAR     63  63 100 CALM      30.10R FOG
OLNEY-NOBLE AP   N/A     61  61 100 CALM      30.10S FOG
PARIS          CLEAR     60  60  99 CALM      30.12R FOG
PEORIA         CLEAR     71  64  78 S7        30.06S
PONTIAC        CLEAR     64  64 100 SE6       30.07S FOG
RANTOUL        CLEAR     64  61  90 SE3       30.10S FOG
ROBINSON       FOG       63  63  98 CALM      30.11R VSB 1/4
SPRINGFIELD    CLEAR     72  65  78 S7        30.07R
TAYLORVILLE    CLEAR     63  63 100 SE5       30.08S FOG
$$

...REGIONAL REPORTS...


CITY           SKY/WX    TMP DP  RH WIND       PRES   REMARKS
CHICAGO O`HARE CLEAR     71  62  73 S7        30.03F
KANKAKEE       CLEAR     64  63  96 S3        30.08S
MOLINE         CLEAR     74  66  76 S9        30.00S
MOUNT VERNON   CLEAR     63  57  82 CALM      30.11R
PITTSFIELD     CLEAR     69  65  88 SE3       30.07R FOG
QUINCY         CLEAR     71  66  84 S8        30.04S
ROCKFORD       CLOUDY    71  65  81 S9        30.04R
$$


CITY           SKY/WX    TMP DP  RH WIND       PRES   REMARKS
BURLINGTON     PTCLDY    73  68  84 S10       30.01S
CEDAR RAPIDS   MOCLDY    74  67  78 S12       29.94F
DES MOINES     CLOUDY    81  74  79 S12       29.91R HX  86
KIRKSVILLE     CLEAR     73  68  84 S8        30.04R
OTTUMWA        MOCLDY    75  68  78 S12       29.96F
ST LOUIS       CLEAR     75  65  70 SW6       30.08S
$$


CITY           SKY/WX    TMP DP  RH WIND       PRES   REMARKS
TERRE HAUTE    MOCLDY    63  61  93 CALM      30.10S FOG
EVANSVILLE     CLEAR     69  65  86 CALM      30.09R FOG
INDIANAPOLIS   CLEAR     69  62  78 CALM      30.11R
LAFAYETTE      FOG       62  62 100 CALM      30.11R VSB 3/4
MADISON        PTCLDY    74  67  78 S13       29.97F
MILWAUKEE      CLEAR     71  65  81 SW10      30.01S
$$





USA.gov is the U.S. government's official web portal to all federal, state and local government web resources and services.